Hourly Data Report for June 07, 2021

WRIGLEY A
NORTHWEST TERRITORIES
Current Station Operator: NAVCAN

63°12'35.000" N
123°26'12.000" W
149.70 m
2204005
YWY

Download Data

Hourly Data (June 2021)
Hourly Data Report for June 7, 2021
TIME
LST
Temp Definition
°C
Dew Point Definition
°C
Rel Hum Definition
%
Precip. Amount Definition
mm

Wind Dir Definition
10's deg

Wind Spd Definition
km/h
Visibility Definition
km
Stn Press Definition
kPa
Hmdx Definition


Wind Chill Definition


Weather Definition


00:00 4.6 -1.6 64 LegendMM 33 3 LegendMM 99.75     LegendNANA
01:00 3.0 -1.9 70 LegendMM 28 3 LegendMM 99.78     LegendNANA
02:00 0.3 -3.0 79 LegendMM 31 5 LegendMM 99.83     LegendNANA
03:00 -1.2 -3.5 85 LegendMM 1 3 LegendMM 99.88   -2 LegendNANA
04:00 -1.6 -3.7 86 LegendMM 7 1 LegendMM 99.93   -2 LegendNANA
05:00 -0.8 -2.5 88 LegendMM 7 5 LegendMM 99.97   -2 LegendNANA
06:00 3.2 -0.3 78 LegendMM 11 1 LegendMM 99.99     LegendNANA
07:00 4.6 -0.4 70 LegendMM 27 4 LegendMM 100.02     LegendNANA
08:00 6.2 -0.7 61 LegendMM 24 3 LegendMM 100.02     LegendNANA
09:00 8.1 -3.3 45 LegendMM 20 3 LegendMM 100.02     LegendNANA
10:00 9.2 -4.1 39 LegendMM 28 5 LegendMM 99.99     LegendNANA
11:00 10.3 -5.0 34 LegendMM 21 8 LegendMM 99.97     LegendNANA
12:00 11.7 -3.3 35 LegendMM 26 8 LegendMM 99.94     LegendNANA
13:00 12.5 -3.3 33 LegendMM 20 7 LegendMM 99.92     LegendNANA
14:00 13.2 -7.2 24 LegendMM 24 8 LegendMM 99.89     LegendNANA
15:00 14.5 -5.1 25 LegendMM 26 3 LegendMM 99.87     LegendNANA
16:00 14.8 -4.5 26 LegendMM 24 5 LegendMM 99.86     LegendNANA
17:00 15.5 -4.6 25 LegendMM 10 2 LegendMM 99.84     LegendNANA
18:00 15.7 -2.9 28 LegendMM 23 5 LegendMM 99.81     LegendNANA
19:00 15.6 -5.3 23 LegendMM 21 6 LegendMM 99.79     LegendNANA
20:00 15.4 -2.7 28 LegendMM 11 11 LegendMM 99.79     LegendNANA
21:00 14.8 -2.8 29 LegendMM 13 9 LegendMM 99.80     LegendNANA
22:00 13.0 -2.1 35 LegendMM 12 9 LegendMM 99.82     LegendNANA
23:00 11.4 -2.9 37 LegendMM 13 10 LegendMM 99.87     LegendNANA

Notes on Data Quality.

Legend

  • E = Estimated
  • M = Missing
  • NA = Not Available*
  • [empty] = Indicates an unobserved value
Date modified: